Change the Weather History Date:

Thursday, July 25, 2013

  Actual Average Record
Temperature  
Mean Temperature 79 °F 81 °F  
Max Temperature 89 °F 91 °F 101 °F (1981)
Min Temperature 68 °F 70 °F 61 °F (1947)
Cooling Degree Days 14 16  
Month to date cooling degree days 330 393  
Year to date cooling degree days 876 1011  
Since 1 June cooling degree days 697 771  
Growing Degree Days 28 (Base 50)    
Moisture  
Dew Point 69 °F    
Average Humidity 74    
Maximum Humidity 97    
Minimum Humidity 51    
Precipitation  
Precipitation 0.00 in 0.15 in 6.22 in (2001)
Month to date precipitation 8.55 3.63  
Year to date precipitation 39.84 26.92  
Sea Level Pressure  
Sea Level Pressure 29.91 in    
Wind  
Wind Speed 3 mph (NNE)    
Max Wind Speed 13 mph    
Max Gust Speed 16 mph    
Visibility 9 miles    
Events      
T = Trace of Precipitation, MM = Missing Value Source: NWS Daily Summary

Daily Weather History Graph

Daily Weather History Graph

Search for Another Location

Airport or City:

Trip Planner

Search our weather history database for the weather conditions in past years. The results will help you decide how hot, cold, wet, or windy it might be!

Date:

Astronomy

Jul. 25, 2013 Rise Set
Actual Time 6:40 AM EDT 8:39 PM EDT
Civil Twilight 6:12 AM EDT 9:06 PM EDT
Nautical Twilight 5:38 AM EDT 9:40 PM EDT
Astronomical Twilight 5:02 AM EDT 10:16 PM EDT
Moon 10:33 PM EDT (7/25) 9:55 AM EDT (7/25)
Length of Visible Light 14h 54m
Length of Day
13h 59m
Waning Gibbous, 88% of the Moon is Illuminated
Jul 25
Waning Gibbous
Jul 29
Last Quarter
Aug 6
New
Aug 14
First Quarter
Aug 20
Full

Hourly Weather History & Observations

Time (EDT) Temp. Heat Index Dew Point Humidity Pressure Visibility Wind Dir Wind Speed Gust Speed Precip Events Conditions
12:51 AM 72.0 °F - 68.0 °F 87% 29.84 in 10.0 mi Calm Calm - N/A   Clear
1:51 AM 72.0 °F - 69.1 °F 91% 29.84 in 9.0 mi NW 4.6 mph - N/A   Clear
2:51 AM 71.1 °F - 69.1 °F 93% 29.83 in 7.0 mi NNW 5.8 mph - N/A   Clear
3:51 AM 70.0 °F - 68.0 °F 93% 29.82 in 7.0 mi NW 4.6 mph - N/A   Clear
4:51 AM 69.1 °F - 66.9 °F 93% 29.83 in 8.0 mi NNW 3.5 mph - N/A   Clear
5:51 AM 69.1 °F - 66.9 °F 93% 29.85 in 8.0 mi NNW 3.5 mph - N/A   Clear
6:51 AM 69.1 °F - 66.0 °F 90% 29.88 in 6.0 mi North 4.6 mph - N/A   Clear
7:51 AM 72.0 °F - 66.9 °F 84% 29.89 in 7.0 mi Calm Calm - N/A   Clear
8:51 AM 73.9 °F - 69.1 °F 85% 29.91 in 8.0 mi NE 6.9 mph - N/A   Clear
9:51 AM 78.1 °F - 69.1 °F 74% 29.92 in 9.0 mi East 10.4 mph - N/A   Clear
10:51 AM 81.0 °F 84.1 °F 69.1 °F 67% 29.94 in 10.0 mi ENE 9.2 mph - N/A   Partly Cloudy
11:42 AM 82.4 °F 86.3 °F 69.8 °F 66% 29.95 in 10.0 mi East 8.1 mph - N/A   Mostly Cloudy
11:51 AM 82.0 °F 85.5 °F 69.1 °F 65% 29.94 in 10.0 mi Variable 3.5 mph - N/A   Mostly Cloudy
12:51 PM 82.9 °F 86.5 °F 69.1 °F 63% 29.94 in 10.0 mi Calm Calm - N/A   Mostly Cloudy
1:02 PM 82.4 °F 86.3 °F 69.8 °F 66% 29.96 in 10.0 mi Calm Calm - N/A   Mostly Cloudy
1:51 PM 84.9 °F 89.4 °F 70.0 °F 61% 29.95 in 10.0 mi ESE 4.6 mph - N/A   Partly Cloudy
2:51 PM 84.0 °F 87.8 °F 69.1 °F 61% 29.94 in 9.0 mi Calm Calm - N/A   Scattered Clouds
3:51 PM 88.0 °F 92.9 °F 70.0 °F 55% 29.93 in 10.0 mi Calm Calm - N/A   Scattered Clouds
4:51 PM 87.1 °F 90.6 °F 68.0 °F 53% 29.94 in 10.0 mi Calm Calm - N/A   Mostly Cloudy
5:51 PM 86.0 °F 88.8 °F 66.9 °F 53% 29.93 in 10.0 mi Calm Calm - N/A   Clear
6:51 PM 84.9 °F 88.8 °F 69.1 °F 59% 29.93 in 9.0 mi Calm Calm - N/A   Clear
7:51 PM 84.9 °F 88.8 °F 69.1 °F 59% 29.94 in 9.0 mi Calm Calm - N/A   Clear
8:51 PM 78.1 °F - 73.0 °F 84% 29.96 in 8.0 mi Calm Calm - N/A   Clear
9:51 PM 78.1 °F - 70.0 °F 76% 29.98 in 10.0 mi Calm Calm - N/A   Clear
10:51 PM 78.1 °F - 70.0 °F 76% 29.99 in 9.0 mi NNW 5.8 mph - N/A   Partly Cloudy
11:51 PM 75.0 °F - 66.9 °F 76% 30.00 in 10.0 mi Calm Calm - N/A   Clear